Tracking 31032 objects as of 14-Jul-2025
HD Live streaming from Space Station
objects crossing your sky now

CZ-6A DEB

Track CZ-6A DEB now!
10-day predictions


NORAD ID: 56272
Int'l Code: 2022-151ACQ
Perigee: 786.1 km
Apogee: 808.3 km
Inclination: 98.8 °
Period: 100.7 minutes
Semi major axis: 7168 km
RCS: Unknown
Launch date: November 11, 2022
Source: People's Republic of China (PRC)
Launch site: Taiyaun Space Center, China (TSC)

Note: This is SATELLITE DEBRIS
Your satellite tracking list
Your tracking list is empty




NASA's NSSDC Master Catalog

Two Line Element Set (TLE):
1 56272U 22151ACQ 25194.51245404  .00004008  00000-0  15531-2 0  9998
2 56272  98.7770 211.3495 0015465 144.7560 215.4648 14.30494598118899
Source of the keplerian elements: AFSPC